Regional Weather Roundup
Issued by NWS

Home | Current Version | Previous Version | Text Only | Print | Product List | Glossary Off
Versions: 1 2 3 4 5 6 7 8 9 10 11 12 13 14 15 16 17 18 19 20 21 22 23 24 25 26 27 28 29 30 31 32 33 34 35 36 37 38 39 40 41 42 43 44 45 46 47 48 49 50

000
ASUS43 KDTX 012301
RWRMI
MICHIGAN HOURLY REGIONAL WEATHER ROUNDUP
NATIONAL WEATHER SERVICE DETROIT/PONTIAC MI
600 PM EST SUN MAR 01 2015

NOTE: "FAIR" INDICATES FEW OR NO CLOUDS BELOW 12,000 FEET WITH NO
SIGNIFICANT WEATHER AND/OR OBSTRUCTION TO VISIBILITY.

MIZ047>049-052>055-059>063-066>070-074>076-081>083-020000-
SOUTHEAST LOWER MICHIGAN

CITY           SKY/WX    TMP DP  RH WIND       PRES   REMARKS
ADRIAN         CLOUDY    23  18  81 SW6       30.23F WCI  16
ALMA           CLOUDY    25  17  70 W9        30.20F WCI  16
ANN ARBOR      CLOUDY    24  17  74 SW7       30.21F WCI  16
BAD AXE        CLOUDY    23  15  70 SW6       30.18F WCI  15
CARO           CLOUDY    24  15  68 SW6       30.18F WCI  17
DETROIT CITY   CLOUDY    27  18  69 SW7       30.21F WCI  19
DETROIT        MOCLDY    25  18  74 SW9       30.23F WCI  15
FLINT          CLOUDY    25  14  63 W8        30.21F WCI  16
GROSSE ILE     CLOUDY    25  19  80 SW7       30.21F WCI  17
HILLSDALE      PTCLDY    22  17  79 W8        30.21S WCI  12
HOWELL         PTCLDY    23  13  66 W7        30.19F WCI  14

CITY           SKY/WX    TMP DP  RH WIND       PRES   REMARKS
JACKSON        MOCLDY    23  15  71 W8        30.21F WCI  14
LAMBERTVILLE   PTCLDY    25  19  80 SW6       30.24F WCI  18
LANSING        CLOUDY    25  14  63 SW8       30.20F WCI  16
LAPEER         FAIR      23  12  63 W5        30.19F WCI  17
MASON          CLOUDY    24  15  67 W3        30.20F
MONROE         CLOUDY    23  18  80 SW6       30.22F WCI  16
MT. CLEMENS    MOCLDY    26  18  71 SW6       30.18F WCI  19
PONTIAC        PTCLDY    23  12  62 W9        30.18F WCI  13
PORT HOPE        N/A     23  12  62 VRB7      30.16F WCI  15
PORT HURON     PTCLDY    27  14  59 W3        30.20F
TRI CITIES     CLOUDY    25  16  68 SW10      30.19F WCI  15
TROY           PTCLDY    29  17  60 SW3       30.22F
SAGINAW HB     PTCLDY    27  19  74 SW13      30.19S WCI  16
$$
MIZ043>046-050>051-056>058-064>065-071>073-077>080-020000-
SOUTHWEST LOWER MICHIGAN

CITY           SKY/WX    TMP DP  RH WIND       PRES   REMARKS
BATTLE CREEK   CLOUDY    25  17  72 S7        30.21F WCI  17
BENTON HARBOR    N/A    N/A N/A N/A MISG      30.26S
BIG RAPIDS     CLOUDY    24  18  80 SW8       30.15F WCI  14
COLDWATER      MOCLDY    21  15  76 W5        30.22F WCI  15
FREMONT        CLOUDY    23  17  77 SW10G16   30.19F WCI  12
HOLLAND        CLOUDY    24  18  77 SW14      30.24S WCI  12
GRAND RAPIDS   CLOUDY    23  17  78 W13       30.21F WCI  11
IONIA          CLOUDY    26  17  71 W13       30.19F WCI  14
KALAMAZOO      MOCLDY    24  15  68 W8        30.23F WCI  15
LUDINGTON      CLOUDY    24  18  78 SW10G16   30.18F WCI  13
MARSHALL       CLOUDY    22  15  72 SW7       30.21F WCI  14
MOUNT PLEASANT CLOUDY    25  17  70 SW9       30.17F WCI  16
MUSKEGON       CLOUDY    24  17  74 SW12      30.22F WCI  13
SOUTH HAVEN    CLOUDY    25  19  77 SW7       30.25S WCI  17
$$
MIZ016>042-020000-
NORTHERN LOWER MICHIGAN

CITY           SKY/WX    TMP DP  RH WIND       PRES   REMARKS
ALPENA         CLOUDY    27  12  53 SW7       30.11F WCI  19
BEAVER ISLAND  MOCLDY    23  17  78 SW14G21   30.08F WCI  11
BELLAIRE       CLOUDY    25  14  62 SW6       30.14S WCI  18
CADILLAC       CLOUDY    21  15  78 SW13      30.10F WCI   8
CHARLEVOIX     MOCLDY    23  14  69 SW8       30.14F WCI  14
FRANKFORT      CLOUDY    24  19  81 SW8G21    30.15F WCI  15
GAYLORD        MOCLDY    21  13  71 SW10      30.07F WCI  10
GRAYLING       MOCLDY    24  12  62 SW7       30.11F WCI  15
HARBOR SPRINGS MOCLDY    22  15  74 SW7       30.11F WCI  14
HOUGHTON LAKE  CLOUDY    22  14  71 W8        30.12F WCI  12
MANISTEE       CLOUDY    23  16  74 SW8       30.17F WCI  14
OSCODA         MOCLDY    25  14  64 SW14      30.14F WCI  13
PELLSTON       CLOUDY    23  13  65 SW9       30.10F WCI  13
ROGERS CITY    PTCLDY    26  14  60 W8        30.11F WCI  18
TRAVERSE CITY  CLOUDY    24  14  65 SW10G17   30.13F WCI  14
$$
MIZ007>008-015-020000-
EASTERN UPPER MICHIGAN

CITY           SKY/WX    TMP DP  RH WIND       PRES   REMARKS
KINROSS        CLOUDY    21  18  86 SW8       30.07F WCI  12
MACKINAC ISLAN CLOUDY    22  15  72 SW10      30.08F WCI  12
NEWBERRY       CLOUDY    22  17  82 S13       30.04F WCI  10
S. S. MARIE    CLOUDY    22  13  68 S13       30.06F WCI  10
MUNISING         N/A     27  16  63 SW5       30.04F WCI  22
$$
MIZ004>006-011>014-085-020000-
CENTRAL UPPER MICHIGAN

CITY           SKY/WX    TMP DP  RH WIND       PRES   REMARKS
MANISTIQUE     PTCLDY    26  16  67 SW12G21   30.06S WCI  15
ESCANABA       CLOUDY    28  14  54 SW14      30.06F WCI  17
MENOMINEE      CLOUDY    25  12  58 W12       30.10S WCI  14
SAWYER-GWINN   CLOUDY    23   9  54 W13       30.02S WCI  11
$$
MIZ001>003-009>011-084-020000-
WESTERN UPPER MICHIGAN

CITY           SKY/WX    TMP DP  RH WIND       PRES   REMARKS
IRON MOUNTAIN  CLOUDY    21   8  57 W9        30.05S WCI  11
HOUGHTON       PTCLDY    20   9  62 W21G26    30.01S WCI   4
COPPER HARBOR    N/A     21   9  59 MISG      30.02F
IRONWOOD       PTCLDY    23   3  42 W18       30.03S WCI   9
$$

ABBREVIATIONS USED IN REMARKS
   TC - TEMPERATURE IN CELSIUS
  WCI - WIND CHILL INDEX
   HX - HEAT INDEX
  VSB - VISIBILITY



USA.gov is the U.S. government's official web portal to all federal, state and local government web resources and services.